Effective Sunday, March 17, 2024, the National Weather Service National Data Buoy Center will discontinue its Dial-A-Buoy Interactive Voice Response system. For more information, see Service Change Notice 24-06 (PDF).

Station TPLM2 - Thomas Point, MD Image indicating link to RSS feed of recent meteorological observations for station TPLM2


Conditions at TPLM2 as of
(11:00 pm EST on 02/21/2024)
0400 GMT on 02/22/2024:
     

Click on the graph icon in the table below to see a time series plot of the last five days of that observation.

5-day plot - Wind Direction Wind Direction (WDIR):ESE ( 110 deg true )
5-day plot - Wind Speed Wind Speed (WSPD): 11 kts
5-day plot - Wind Gust Wind Gust (GST): 12 kts
5-day plot - Atmospheric Pressure Atmospheric Pressure (PRES):30.28 in
5-day plot - Pressure Tendency Pressure Tendency (PTDY):-0.03 in ( Falling )
5-day plot - Air Temperature Air Temperature (ATMP): 37.0 °F
5-day plot - Wind Chill Wind Chill (CHILL): 28.8 °F
5-day plot - Wind Speed at 10 Meters Wind Speed at 10 meters (WSPD10M): 12 kts
5-day plot - Wind Speed at 20 Meters Wind Speed at 20 meters (WSPD20M): 12 kts
5-day plot -  Wind Speed, Wind Gust and Atmospheric Pressure Combined plot of Wind Speed, Gust, and Air Pressure
Continuous Winds
TIME
(EST)
5-day plot - Wind Direction WDIR 5-day plot - Wind Speed WSPD
11:00 pmESE ( 107 deg ) 11 kts
10:50 pmESE ( 109 deg ) 11 kts
10:40 pmESE ( 110 deg ) 11 kts
10:30 pmESE ( 113 deg ) 11 kts
10:20 pmESE ( 108 deg ) 11 kts
10:10 pmESE ( 104 deg ) 11 kts
 
Peak gust during the measurement hour
TIME
(EST)
5-day plot - Gust Direction GDR 5-day plot - Gust Speed GST
10:51 pmESE ( 110 deg ) 13 kts
Previous observations
TIME
(EST)
5-day plot - Wind Direction
WDIR
 
5-day plot - Wind Speed
WSPD
kts
5-day plot - Wind Gust
GST
kts
5-day plot - Wave Height
WVHT
ft
5-day plot - Dominant Wave Period
DPD
sec
5-day plot - Average Wave Period
APD
sec
5-day plot - Mean Wave Direction
MWD
 
5-day plot - Atmospheric Pressure
PRES
in
5-day plot - Pressure Tendency
PTDY
in
5-day plot - Air Temperature
ATMP
°F
5-day plot - Water Temperature
WTMP
°F
5-day plot - Dew Point
DEWP
°F
5-day plot - Salinity
SAL
psu
5-day plot - Visibility
VIS
nmi
5-day plot - Tide (above MLLW)
TIDE
ft
2024-02-21 10:00 pm E 11 12----30.30+0.00 37.6-----
2024-02-21 09:00 pm E 13 14----30.30+0.00 37.9-----
2024-02-21 08:00 pm E 12 14----30.31+0.00 39.6-----
2024-02-21 07:00 pmENE 10 12----30.30-0.03 40.5-----
2024-02-21 06:00 pmNNE 6 6----30.30-0.04 40.5-----
2024-02-21 05:00 pm N 4 4----30.31-0.05 41.0-----
2024-02-21 04:00 pmNNW 4 5----30.33-0.06 40.8-----
2024-02-21 03:00 pmNNW 6 6----30.35-0.09 39.9-----
2024-02-21 02:00 pm NW 5 6----30.36-0.11 38.3-----
2024-02-21 01:00 pmNNW 4 5----30.39-0.09 37.6-----
2024-02-21 12:00 pmNNW 5 6----30.44-0.06 36.3-----
2024-02-21 11:00 amNNW 7 7----30.47-0.01 35.2-----
2024-02-21 10:00 am N 5 5----30.48+0.01 34.7-----
2024-02-21 09:00 amNNE 6 7----30.50+0.03 33.4-----
2024-02-21 08:00 amNNE 10 11----30.48+0.02 32.9-----
2024-02-21 07:00 am N 9 10----30.47+0.01 33.4-----
2024-02-21 06:00 amNNE 7 8----30.47+0.00 32.9-----
2024-02-21 05:00 amNNE 7 8----30.46-0.02 33.4-----
2024-02-21 04:00 am NE 8 9----30.46-0.03 33.8-----
2024-02-21 03:00 amNNE 7 7----30.47+0.00 33.8-----
2024-02-21 02:00 am NE 6 7----30.48+0.00 34.3-----
2024-02-21 01:00 am E 10 10----30.49+0.01 35.1-----
2024-02-21 12:00 am E 11 13----30.48+0.01 35.4-----
2024-02-20 11:00 pm E 13 14----30.48+0.02 35.6-----